Weather in Vaskelovo

Russia / Saint-Petersburg and Leningrad Oblast     60°22′34″N   30°21′28″E
temp.,
°C
wind,
m/s
gust,
m/s
humid.,
%
clouds,
%
prec.,
mm/h
press.,
hPa
HPBL,
m
22 april, thu
thu2200:00+1wsw1399100 0.3 1003153
03:00+1ssw2498100 0.5 1003151
06:00+1s1398100 0.0 1003158
09:00+4s248749 0.0 1003326
12:00+10ssw35615 0.0 10041048
15:00+12sw374539 0.0 10051583
18:00+11wsw364898 0.0 10051503
21:00+7e1166100 0.0 100511
23 april, fri
fri2300:00+6ssw2893100 3.6 1003961
03:00+5s3993100 8.7 1003579
06:00+4s3893100 0.0 1003354
09:00+6ssw477935 0.0 1004763
12:00+8ssw5858100 0.1 10041859
15:00+5s586886 0.4 10061139
18:00+6s486348 0.1 10061532
21:00+3s38815 0.4 1006397
24 april, sat
sat2400:00+1sse28925 0.0 1006199
03:000s279646 0.0 1006223
06:00+1s2494100 0.0 1006333
09:00+2sw129298 0.3 1007377
12:00+4ssw1172100 0.3 1007934
15:00+4ssw2165100 0.3 1007872
18:00+4sw226299 0.0 1006857
21:00+1wnw249198 0.0 100684
25 april, sun
sun2500:00+2wnw2390100 0.0 1005382
03:00+1wsw238986 0.0 1004157
06:000sw239031 0.0 1004157
09:00+3sw227139 0.0 1004715
12:00+6ssw345362 0.0 10051406
15:00+7ssw334791 0.1 10051677
18:00+7s114799 0.1 10061413
21:00+3sse1174100 0.2 100719
26 april, mon
mon2600:00+2w1175100 0.0 100824
03:00+2w2483100 0.0 1008104
06:00+2w2781100 0.0 1008220
09:00+4w3572100 0.0 1008544
12:00+6w4662100 0.2 10081353
15:00+3wsw5887100 0.6 1008846
18:00+2wsw41095100 1.1 1008597
21:00+2wnw2499100 2.1 1008300